sat.trackr.live / text

‹ back to catalog

STARLINK-32345

NORAD 60920 · 2024-154T

PAYLOAD ACTIVE UNKNOWN

§ Identity

Operator
Country
US
Launch date
2024-08-31
Launch site
AFETR
Launch vehicle
Mass (kg)
RCS (m²)

Purposes: comms

External: N2YO · Heavens-Above · Gunter

§ Orbital elements

Epoch: 2026-09-21T20:14:13.065792Z

Period
93.85 min
Inclination
53.1606°
Eccentricity
0.0001154
Mean motion
15.34384107 rev/d
Perigee alt
462.0 km
Apogee alt
463.5 km
Semi-major
6,840.9 km
B*
-1.1002e-6
RAAN
91.5430°
Arg perigee
107.8333°
Mean anomaly
252.2795°
Rev number
11,639

§ Raw data

STARLINK-323451 60920U 24154T   26264.84320678 -.00000413  00000+0 -11002-5 0  99992 60920  53.1606  91.5430 0001154 107.8333 252.2795 15.34384107116396

JSON: /api/v1/satellites/60920 · /tle

For live sub-satellite position, see the globe view (requires WebGL).

§ Visibility from observer

Set your observer location to see the next 7 days of passes ≥ 10°. The values pass through the URL so the page stays shareable.

No JS? Fill the form by hand. The geolocation button needs JavaScript.